This is the latest recevied weather packets stored in our database for station/object W0AKO. If no packets are shown the sender has not sent any weather packets the latest 10 day(s).
| Time | Temp. | Humidity | Pressure | Rain* | Wind** | Luminosity | Snow |
|---|---|---|---|---|---|---|---|
| 1777770507 | 28.33° C | 10% | 1013.3 hPa | 0 mm | - | 48 W/m² | - |
| 1777770205 | 28.33° C | 10% | 1013.4 hPa | 0 mm | - | 44 W/m² | - |
| 1777769901 | 28.33° C | 10% | 1013.2 hPa | 0 mm | - | 43 W/m² | - |
| 1777769599 | 28.89° C | 10% | 1013.2 hPa | 0 mm | - | 49 W/m² | - |
| 1777769295 | 29.44° C | 10% | 1013.4 hPa | 0 mm | - | 79 W/m² | - |
| 1777768993 | 29.44° C | 10% | 1013.2 hPa | 0 mm | - | 156 W/m² | - |
| 1777768690 | 29.44° C | 10% | 1013.4 hPa | 0 mm | - | 150 W/m² | - |
| 1777768387 | 29.44° C | 10% | 1013.3 hPa | 0 mm | - | 196 W/m² | - |
| 1777768084 | 30.56° C | 10% | 1013.4 hPa | 0 mm | - | 172 W/m² | - |
| 1777767781 | 30° C | 10% | 1013.6 hPa | 0 mm | - | 222 W/m² | - |
| 1777767477 | 30.56° C | 10% | 1013.4 hPa | 0 mm | - | 198 W/m² | - |
| 1777767174 | 31.67° C | 10% | 1013.4 hPa | 0 mm | - | 275 W/m² | - |
| 1777766871 | 31.67° C | 10% | 1013.5 hPa | 0 mm | - | 255 W/m² | - |
| 1777766568 | 31.67° C | 10% | 1013.5 hPa | 0 mm | - | 259 W/m² | - |
| 1777766265 | 31.11° C | 10% | 1013.2 hPa | 0 mm | - | 287 W/m² | - |
| 1777765963 | 30.56° C | 10% | 1013.5 hPa | 0 mm | - | 231 W/m² | - |
| 1777765659 | 30.56° C | 10% | 1013.3 hPa | 0 mm | - | 309 W/m² | - |
| 1777765357 | 30.56° C | 10% | 1013.4 hPa | 0 mm | - | 289 W/m² | - |
| 1777765052 | 30.56° C | 10% | 1013.5 hPa | 0 mm | - | 294 W/m² | - |
| 1777764749 | 31.11° C | 10% | 1013.3 hPa | 0 mm | - | 258 W/m² | - |
| 1777764445 | 31.11° C | 10% | 1013.4 hPa | 0 mm | - | 312 W/m² | - |
| 1777764142 | 30° C | 10% | 1013.5 hPa | 0 mm | - | 371 W/m² | - |
| 1777763839 | 30.56° C | 10% | 1013.9 hPa | 0 mm | - | 350 W/m² | - |
| 1777763537 | 31.11° C | 10% | 1013.6 hPa | 0 mm | - | 403 W/m² | - |
| 1777763236 | 31.11° C | 10% | 1013.8 hPa | 0 mm | - | 341 W/m² | - |
* Rain latest hour (hover to see other rain measurements)
** Current wind speed in m/s (hover to see current wind gust speed)